Flag for India Weather past 2 weeks in Firozpur, Punjab, India

Now
97 °F

Clear.


Feels Like: 93 °F
Forecast: 70 / 100 °F
Wind: 7 mph from Northwest

Location: Lahore Airport

Current Time: Apr 21, 2015 at 2:24:32 PM

Latest Report: Apr 21, 2015 at 1:55 PM


Visibility: 6 mi

Pressure: 29.80 "Hg

Humidity: 18%

Dew point: 46 °F

Location of FirozpurLocation

Historic Weather in Firozpur — Graph

°F

Firozpur temperature yesterday

Maximum temperature yesterday: 99 °F (at 1:55 PM)
Minimum temperature yesterday: 72 °F (at 7:00 AM)
Average temperature yesterday: 86 °F

Past Weeks' High & Low Weather Summary

 TemperatureHumidityPressure
High100 °F (Apr 19, 2:25 PM)88% (Apr 7, 7:00 AM)30.12 "Hg (Apr 7, 7:00 AM)
Low59 °F (Apr 8, 5:29 AM)17% (Apr 20, 1:55 PM)29.56 "Hg (Apr 19, 6:25 PM)
Average80 °F53%29.85 "Hg
* Reported Apr 6 12:55 PM — Apr 21 12:55 PM, Firozpur, Weather by CustomWeather, © 2015

Note: Actual official high and low records may vary slightly from our data, if they occured in-between our weather recording intervals... More about our weather records

Advertising

Firozpur weather history for previous 24 hours

 ConditionsComfort  
Time TempWeatherWind HumidityBarometerVisibility
12:55 PM
Tue, Apr 21
95 °FClear.9 mph23%29.80 "Hg6 mi
12:25 PM93 °FClear.10 mph24%29.83 "Hg6 mi
11:55 AM91 °FClear.10 mph30%29.83 "Hg6 mi
11:25 AM90 °FClear.12 mph31%29.83 "Hg6 mi
10:55 AM86 °FClear.9 mph40%29.83 "Hg5 mi
10:25 AM84 °FClear.8 mph43%29.83 "Hg5 mi
9:55 AM84 °FClear.9 mph45%29.83 "Hg4 mi
9:25 AM82 °FClear.9 mph48%29.83 "Hg4 mi
9:00 AM81 °FClear.5 mph51%29.83 "Hg3 mi
8:25 AM79 °FClear.7 mph54%29.83 "Hg3 mi
7:55 AM75 °FClear.9 mph61%29.80 "Hg2 mi
7:25 AM75 °FClear.7 mph61%29.80 "Hg2 mi
6:55 AM72 °FClear.5 mph69%29.80 "Hg2 mi
6:25 AM72 °FClear.No wind69%29.77 "Hg2 mi
5:25 AM73 °FClear.7 mph65%29.77 "Hg2 mi
4:55 AM73 °FClear.7 mph65%29.74 "Hg2 mi
4:25 AM75 °FClear.7 mph61%29.77 "Hg2 mi
3:55 AM75 °FClear.6 mph61%29.74 "Hg2 mi
3:25 AM77 °FClear.7 mph57%29.77 "Hg2 mi
2:55 AM77 °FClear.3 mph57%29.77 "Hg2 mi
2:25 AM77 °FClear.5 mph57%29.77 "Hg2 mi
1:55 AM79 °FClear.5 mph54%29.77 "Hg2 mi
1:25 AM79 °FClear.6 mph54%29.77 "Hg2 mi
12:55 AM81 °FClear.5 mph54%29.77 "Hg2 mi
12:25 AM81 °FClear.6 mph54%29.77 "Hg2 mi
11:55 PM
Mon, Apr 20
82 °FClear.5 mph51%29.77 "Hg2 mi
11:25 PM82 °FClear.3 mph51%29.80 "Hg2 mi
10:55 PM84 °FHaze.7 mph45%29.77 "Hg2 mi
10:25 PM84 °FHaze.7 mph45%29.77 "Hg2 mi
9:55 PM84 °FHaze.10 mph45%29.77 "Hg2 mi
9:25 PM86 °FHaze.12 mph43%29.77 "Hg3 mi
8:55 PM88 °FHaze.14 mph40%29.74 "Hg3 mi
8:25 PM88 °FHaze.15 mph40%29.74 "Hg3 mi
7:55 PM88 °FHaze.13 mph40%29.74 "Hg3 mi
7:25 PM90 °FHaze.17 mph38%29.71 "Hg3 mi
6:55 PM91 °FHaze.15 mph36%29.71 "Hg3 mi
6:25 PM93 °FHaze.17 mph34%29.71 "Hg3 mi
5:55 PM95 °FScattered clouds.14 mph28%29.71 "Hg3 mi
5:25 PM95 °FScattered clouds.13 mph22%29.68 "Hg3 mi
4:55 PM97 °FScattered clouds.13 mph20%29.68 "Hg2 mi
4:25 PM99 °FScattered clouds.10 mph19%29.68 "Hg1 mi
3:55 PM99 °FScattered clouds.10 mph17%29.68 "Hg1 mi
3:25 PM99 °FScattered clouds.10 mph17%29.71 "Hg1 mi
2:55 PM99 °FPassing clouds.10 mph17%29.71 "Hg1 mi
2:30 PM99 °FPassing clouds.6 mph17%29.71 "Hg1 mi
Weather by CustomWeather, © 2015

See weather overviewHow to use our weather pages